DW4535 Weather Reports


Display with metric or nautical units.
time (UTC)temp
F
wind
direction
speed
MPH
gust
MPH
rain 1hr
in
rain 24hr
in
rain mn
in
humidity
%
barometer
mb
20171118231330 52 193 0.0 1.0 0.00 0.00 0.00 22 1021.7
20171118225830 51 198 0.0 0.0 0.00 0.00 0.00 23 1021.7
20171118224326 52 199 0.0 1.0 0.00 0.00 0.00 20 1021.9
20171118222815 52 205 0.0 2.0 0.00 0.00 0.00 16 1021.9
20171118221310 52 210 0.0 8.0 0.00 0.00 0.00 17 1022.2
20171118215816 52 205 1.0 8.0 0.00 0.00 0.00 21 1022.2
20171118214305 52 205 6.0 12.0 0.00 0.00 0.00 23 1022.3
20171118212756 52 203 2.0 7.0 0.00 0.00 0.00 20 1022.2
20171118211302 52 212 0.0 3.0 0.00 0.00 0.00 27 1022.4
20171118205759 53 216 0.0 3.0 0.00 0.00 0.00 33 1022.5
20171118204244 53 205 0.0 0.0 0.00 0.00 0.00 34 1022.8
20171118202759 53 200 0.0 1.0 0.00 0.00 0.00 27 1023.0
20171118201243 53 181 0.0 1.0 0.00 0.00 0.00 31 1023.2
20171118195743 53 188 0.0 0.0 0.00 0.00 0.00 32 1023.5
20171118194231 53 163 0.0 0.0 0.00 0.00 0.00 18 1023.8
20171118192726 52 140 0.0 0.0 0.00 0.00 0.00 9 1024.1
20171118191215 52 139 0.0 0.0 0.00 0.00 0.00 100 1024.3
20171118185711 51 75 0.0 0.0 0.00 0.00 0.00 100 1024.4
20171118184244 50 74 0.0 0.0 0.00 0.00 0.00 100 1024.6
20171118182708 49 67 0.0 0.0 0.00 0.00 0.00 100 1024.7
20171118181157 48 72 0.0 0.0 0.00 0.00 0.00 100 1024.8
20171118175655 47 83 0.0 0.0 0.00 0.00 0.00 100 1024.8
20171118174149 46 122 0.0 1.0 0.00 0.00 0.00 100 1024.9
20171118172651 45 72 0.0 0.0 0.00 0.00 0.00 100 1024.9
20171118171141 45 75 0.0 1.0 0.00 0.00 0.00 100 1024.8
20171118165636 44 79 0.0 0.0 0.00 0.00 0.00 100 1025.0
20171118164153 44 77 0.0 0.0 0.00 0.00 0.00 100 1025.1
20171118162636 43 89 0.0 1.0 0.00 0.00 0.00 100 1025.2
20171118161125 43 83 0.0 3.0 0.00 0.00 0.00 100 1025.3
20171118155653 43 84 0.0 2.0 0.00 0.00 0.00 100 1025.4
20171118154152 43 83 0.0 0.0 0.00 0.00 0.00 100 1025.5
20171118152619 43 72 0.0 1.0 0.00 0.00 0.00 100 1025.4
20171118151108 43 93 0.0 0.0 0.00 0.00 0.00 100 1025.5
20171118145624 43 95 0.0 1.0 0.00 0.00 0.00 100 1025.5
20171118144119 43 93 0.0 0.0 0.00 0.00 0.00 100 1025.5
20171118142607 43 82 0.0 0.0 0.00 0.00 0.00 100 1025.5
20171118141054 43 84 0.0 1.0 0.00 0.00 0.00 100 1025.6
20171118135545 43 96 0.0 0.0 0.00 0.00 0.00 100 1025.7
20171118134048 43 87 0.0 1.0 0.00 0.00 0.00 100 1025.7
20171118132609 43 84 0.0 0.0 0.00 0.00 0.00 100 1025.8
20171118131035 43 91 0.0 3.0 0.00 0.00 0.00 100 1025.7
20171118125533 43 87 0.0 0.0 0.00 0.00 0.00 100 1026.0
20171118124037 43 97 0.0 0.0 0.00 0.00 0.00 100 1025.9
20171118122525 43 93 0.0 1.0 0.00 0.00 0.00 100 1025.9
20171118121019 43 88 0.0 0.0 0.00 0.00 0.00 100 1026.1
20171118115521 43 86 0.0 0.0 0.00 0.00 0.00 100 1026.1
20171118114006 43 77 0.0 0.0 0.00 0.00 0.00 100 1026.2
20171118112501 44 79 0.0 1.0 0.00 0.00 0.00 100 1026.4
20171118110958 44 101 0.0 0.0 0.00 0.00 0.00 100 1026.6
20171118105453 44 90 0.0 0.0 0.00 0.00 0.00 100 1026.8
20171118103949 44 79 0.0 0.0 0.00 0.00 0.00 100 1026.7
20171118102443 44 89 0.0 0.0 0.00 0.00 0.00 100 1026.8
20171118100942 45 83 0.0 0.0 0.00 0.00 0.00 100 1026.8
20171118095435 45 79 0.0 0.0 0.00 0.00 0.00 100 1026.9
20171118093941 46 101 0.0 0.0 0.00 0.00 0.00 100 1027.0
20171118092437 46 135 0.0 1.0 0.00 0.00 0.00 100 1027.0
20171118090929 46 131 0.0 0.0 0.00 0.00 0.00 100 1027.1
20171118085435 46 122 0.0 0.0 0.00 0.00 0.00 100 1027.2
20171118083912 47 93 0.0 0.0 0.00 0.00 0.00 100 1027.2
20171118082410 47 99 0.0 1.0 0.00 0.00 0.00 100 1027.2
20171118081008 47 108 0.0 0.0 0.00 0.00 0.00 100 1027.3
20171118075403 48 112 0.0 0.0 0.00 0.00 0.00 100 1027.4
20171118073857 48 252 6.0 11.0 0.00 0.00 0.00 100 1027.4
20171118072353 47 14 0.0 0.0 0.00 0.00 0.00 100 1027.3
20171118070849 47 143 0.0 1.0 0.00 0.00 0.00 100 1027.0
20171118065345 47 122 0.0 0.0 0.00 0.00 0.00 100 1027.1
20171118063843 47 104 0.0 0.0 0.00 0.00 0.00 100 1027.0
20171118062335 47 89 0.0 0.0 0.00 0.00 0.00 100 1027.0
20171118060829 47 86 0.0 0.0 0.00 0.00 0.00 100 1027.1
20171118055327 47 121 0.0 0.0 0.00 0.00 0.00 100 1027.0
20171118053824 47 92 0.0 0.0 0.00 0.00 0.00 100 1026.9
20171118052332 47 89 0.0 0.0 0.00 0.00 0.00 100 1026.7
20171118050822 47 1 0.0 0.0 0.00 0.00 0.00 100 1026.8
20171118045316 47 96 0.0 0.0 0.00 0.00 0.00 100 1026.5
20171118043815 48 158 0.0 2.0 0.00 0.00 0.00 100 1026.7
20171118042303 48 166 0.0 8.0 0.00 0.00 0.00 100 1026.5
20171118040757 50 186 4.0 10.0 0.00 0.00 0.00 100 1026.4
20171118035256 49 169 0.0 2.0 0.00 0.00 0.00 100 1026.2
20171118034216 49 157 0.0 1.0 0.00 0.00 0.00 100 1026.3
20171118033016 49 162 0.0 1.0 0.00 0.00 0.00 100 1026.3
20171118030740 48 144 0.0 2.0 0.00 0.00 0.00 100 1026.2
20171118025234 49 150 0.0 0.0 0.00 0.00 0.00 100 1026.1
20171118023730 49 128 0.0 1.0 0.00 0.00 0.00 100 1026.1
20171118022227 49 158 0.0 1.0 0.00 0.00 0.00 1 1026.0
20171118020722 50 147 0.0 10.0 0.00 0.00 0.00 1 1025.7
20171118015220 49 188 2.0 15.0 0.00 0.00 0.00 6 1025.5
20171118013729 50 207 0.0 0.0 0.00 0.00 0.00 7 1025.3
20171118012214 50 210 0.0 10.0 0.00 0.00 0.00 9 1025.2
20171118010725 51 225 7.0 13.0 0.00 0.00 0.00 12 1025.2
20171118005201 51 217 5.0 10.0 0.00 0.00 0.00 16 1025.0
20171118003655 51 211 5.0 12.0 0.00 0.00 0.00 21 1025.0
20171118002150 51 227 7.0 13.0 0.00 0.00 0.00 24 1024.8
20171118000652 51 217 5.0 11.0 0.00 0.00 0.00 27 1024.7
20171117235144 51 215 9.0 13.0 0.00 0.00 0.00 21 1024.6
20171117233637 51 213 9.0 12.0 0.00 0.00 0.00 20 1024.3
20171117232134 52 215 3.0 12.0 0.00 0.00 0.00 25 1024.2